Location: Follega
(52.8850°N, 5.7362°E)
Time: 10:39:41
(UTC+00:00)

CARTOSAT-1 - Pass Details

Date: 09 October 2020
Orbit: 616 x 619 km, 97.8° (Epoch: 20 October)

Event Time Altitude Azimuth Distance (km) Brightness Sun altitude
Exits shadow 21:31:23 13° 335° (NNW) 1,820 6.6 -38.4°
Drops below altitude 10° 21:31:50 10° 337° (NNW) 1,992 6.8 -38.5°
Sets 21:34:05 0° 343° (NNW) 2,903 7.8 -38.7°
